Weather Roundup
Issued by NWS Chicago, IL

Current Version | Previous Version | Text Only | Print | Product List | Glossary On
Versions: 1 2 3 4 5 6 7 8 9 10 11 12 13 14 15 16 17 18 19 20 21 22 23 24 25 26 27 28 29 30 31 32 33 34 35 36 37 38 39 40 41 42 43 44 45 46 47 48 49 50
000
NZUS59 KLOT 231410
HRRLOT

CHICAGO AREA WEATHER ROUNDUP
NATIONAL WEATHER SERVICE CHICAGO/ROMEOVILLE IL
900 AM CDT TUE SEP 23 2014

NOTE: "FAIR" INDICATES FEW OR NO CLOUDS BELOW 12,000 FEET WITH NO
SIGNIFICANT WEATHER AND/OR OBSTRUCTIONS TO VISIBILITY.

* THESE STATIONS ARE NOT UNDER NWS QUALITY CONTROL. THEY ALSO MAY NOT
  REPORT WEATHER SUCH AS PRECIPITATION OR FOG.

ILZ005-006-012>014-019>023-231500-
NORTHEAST ILLINOIS

CITY           SKY/WX    TMP DP  RH WIND       PRES   REMARKS
OHARE          SUNNY     56  45  66 W8        30.34R
MIDWAY         SUNNY     60  47  61 SW6       30.34R
AURORA         SUNNY     56  47  71 SW6       30.35R
LANSING*       SUNNY     56  47  73 CALM      30.35R
JOLIET*        SUNNY     56  48  75 CALM      30.36R
WAUKEGAN       SUNNY     57  48  72 SW6       30.32R
DUPAGE AIRPORT SUNNY     58  47  66 SW7       30.34R
WHEELING       SUNNY     60  46  59 SW6       30.35R
KANKAKEE*      SUNNY     57  50  77 S3        30.36R
MORRIS*        SUNNY     55  51  85 CALM      30.34R
LEWIS AIRPORT* SUNNY     56  49  75 SW3       30.35R
NORTHERLY IS     N/A     60  43  53 W8          N/A
$$

WIZ051-052-058>065-066-070>072-231500-
SOUTHEAST WISCONSIN

CITY           SKY/WX    TMP DP  RH WIND       PRES   REMARKS
MILWAUKEE      SUNNY     60  46  59 W7        30.32R
KENOSHA*       SUNNY     58  50  75 W8        30.33R
RACINE*        SUNNY     59  48  67 W7        30.33R
BURLINGTON     SUNNY     55  50  83 SW3       30.32R
WAUKESHA       SUNNY     55  48  76 SW3       30.33R
WEST BEND      SUNNY     57  50  77 CALM      30.30S
$$

INZ001>003-010>013-019-020-231500-
NORTHWEST INDIANA

CITY           SKY/WX    TMP DP  RH WIND       PRES   REMARKS
GARY*          SUNNY     57  46  67 S5        30.35S
MICHIGAN CITY* NOT AVBL
RENSSELAER*    NOT AVBL
VALPARAISO     SUNNY     54  48  80 S3        30.36R
$$

LMZ740>746-231500-
SOUTHERN LAKE MICHIGAN

STATION/POSITION TIME  SKY/WX   TEMP WIND        PRES    VSBY
                                AIR  DIR/SP/G
                 (UTC)          (F)  (DEG/KT/KT) (MB)    (MI)
HARRISON CRIB    NOT AVBL
BURNHAM HARBOR   1400            60  270/  9/ 12   N/A
CALUMET HARBOR   1400            58  220/  5/  7 1025.9F
BURNS HARBOR     NOT AVBL
MICHIGAN CITY    NOT AVBL
$$

ABBREVIATIONS USED IN REMARKS
   TC - TEMPERATURE IN CELSIUS
  WCI - WIND CHILL INDEX
   HX - HEAT INDEX
  VSB - VISIBILITY
$$


USA.gov is the U.S. government's official web portal to all federal, state and local government web resources and services.